2024-149BF

Last updated on Mon Sep 16 2024 00:02:03 GMT+0000 (Coordinated Universal Time)

1 60521U 24149BF 24258.87767788 .00028072 00000+0 12972-2 0 9994 2 60521 97.4421 334.0384 0007304 54.3085 305.8829 15.20119945 4418
UTC large
Height (km)
Speed (km/s)
/
Latitude / Longitude
Inclination (degrees)
Orbital Period (minutes)
Azimuth
Elevation
Range (km)
Doppler Factor

Next 0 passes for location: London (51.5072 / 0.1276)

Sorry there are no passes over London.